Location: Carnières
(50.1682°N, 3.3474°E)
Time: 20:57:16
(UTC+00:00)

SL-16 R/B - Pass Details

Date: 11 August 2024
Orbit: 842 x 845 km, 71.0° (Epoch: 10 September)

Event Time Altitude Azimuth Distance (km) Brightness Sun altitude
Exits shadow 22:46:23 27° 98° (E) 1,572 3.4 -23.4°
Drops below altitude 10° 22:50:45 10° 48° (NE) 2,474 4.9 -23.6°
Sets 22:53:32 0° 37° (NE) 3,414 5.9 -23.7°
